Change the Weather History Date:

Tuesday, April 8, 2014

  Actual Average Record
Temperature  
Mean Temperature 43 °F -  
Max Temperature 53 °F 55 °F 82 °F (1954)
Min Temperature 33 °F 34 °F 16 °F (1972)
Degree Days  
Heating Degree Days 22    
Moisture  
Dew Point 36 °F    
Average Humidity 75    
Maximum Humidity 93    
Minimum Humidity 51    
Precipitation  
Precipitation 0.00 in - - ()
Sea Level Pressure  
Sea Level Pressure 29.71 in    
Wind  
Wind Speed 7 mph (WNW)    
Max Wind Speed 17 mph    
Max Gust Speed 24 mph    
Visibility 8 miles    
Events Rain    
Averages and records for this station are not official NWS values.
T = Trace of Precipitation, MM = Missing Value Source: NWS Daily Summary

Daily Weather History Graph

Daily Weather History Graph

Search for Another Location

Airport or City:

Trip Planner

Search our weather history database for the weather conditions in past years. The results will help you decide how hot, cold, wet, or windy it might be!

Date:

Astronomy

Apr. 08, 2014 Rise Set
Actual Time 7:15 AM EDT 8:16 PM EDT
Civil Twilight 6:46 AM EDT 8:44 PM EDT
Nautical Twilight 6:13 AM EDT 9:17 PM EDT
Astronomical Twilight 5:38 AM EDT 9:53 PM EDT
Moon 2:05 PM EDT (4/8) 3:31 AM EDT (4/8)
Length of Visible Light 13h 57m
Length of Day
13h 01m
Waxing Gibbous, 62% of the Moon is Illuminated
Apr 8
Waxing Gibbous
Apr 15
Full
Apr 22
Last Quarter
Apr 29
New
May 6
First Quarter

Hourly Weather History & Observations

Time (EDT) Temp. Windchill Dew Point Humidity Pressure Visibility Wind Dir Wind Speed Gust Speed Precip Events Conditions
12:15 AM 41.0 °F 36.4 °F 39.2 °F 93% 29.59 in 5.0 mi West 6.9 mph - N/A   Overcast
12:35 AM 41.0 °F 37.1 °F 37.4 °F 87% 29.59 in 5.0 mi West 5.8 mph - N/A   Overcast
12:55 AM 39.2 °F 35.0 °F 37.4 °F 93% 29.59 in 4.0 mi West 5.8 mph - N/A   Overcast
1:15 AM 39.2 °F 35.0 °F 37.4 °F 93% 29.59 in 5.0 mi West 5.8 mph - N/A   Mostly Cloudy
1:35 AM 39.2 °F 34.2 °F 37.4 °F 93% 29.59 in 4.0 mi West 6.9 mph - N/A   Scattered Clouds
2:15 AM 37.4 °F 32.1 °F 35.6 °F 93% 29.59 in 5.0 mi West 6.9 mph - N/A   Overcast
2:35 AM 37.4 °F 32.1 °F 35.6 °F 93% 29.59 in 5.0 mi West 6.9 mph - N/A   Scattered Clouds
2:55 AM 37.4 °F 32.1 °F 35.6 °F 93% 29.60 in 7.0 mi West 6.9 mph - N/A   Mostly Cloudy
3:15 AM 35.6 °F 29.9 °F 33.8 °F 93% 29.60 in 7.0 mi West 6.9 mph - N/A   Scattered Clouds
3:35 AM 35.6 °F 30.7 °F 33.8 °F 93% 29.60 in 7.0 mi West 5.8 mph - N/A   Mostly Cloudy
3:55 AM 35.6 °F 29.2 °F 33.8 °F 93% 29.61 in 7.0 mi West 8.1 mph - N/A   Scattered Clouds
4:15 AM 35.6 °F 29.9 °F 33.8 °F 93% 29.61 in 7.0 mi West 6.9 mph - N/A   Clear
4:35 AM 35.6 °F 29.2 °F 33.8 °F 93% 29.61 in 7.0 mi West 8.1 mph - N/A   Clear
4:55 AM 35.6 °F 29.9 °F 33.8 °F 93% 29.62 in 7.0 mi West 6.9 mph - N/A   Clear
5:15 AM 35.6 °F 31.7 °F 32.0 °F 87% 29.62 in 7.0 mi West 4.6 mph - N/A   Clear
5:35 AM 35.6 °F 31.7 °F 32.0 °F 87% 29.63 in 7.0 mi West 4.6 mph - N/A   Clear
5:55 AM 35.6 °F 31.7 °F 32.0 °F 87% 29.63 in 7.0 mi West 4.6 mph - N/A   Clear
6:15 AM 33.8 °F 29.6 °F 32.0 °F 93% 29.62 in 7.0 mi West 4.6 mph - N/A   Clear
6:35 AM 35.6 °F 31.7 °F 32.0 °F 87% 29.63 in 7.0 mi WSW 4.6 mph - N/A   Clear
6:55 AM 33.8 °F 29.6 °F 32.0 °F 93% 29.64 in 7.0 mi West 4.6 mph - N/A   Clear
7:15 AM 33.8 °F 27.7 °F 32.0 °F 93% 29.64 in 7.0 mi West 6.9 mph - N/A   Clear
7:35 AM 33.8 °F 27.7 °F 32.0 °F 93% 29.65 in 7.0 mi West 6.9 mph - N/A   Clear
7:55 AM 35.6 °F 31.7 °F 32.0 °F 87% 29.66 in 7.0 mi West 4.6 mph - N/A   Clear
8:15 AM 33.8 °F 28.6 °F 32.0 °F 93% 29.67 in 5.0 mi West 5.8 mph - N/A   Clear
8:35 AM 35.6 °F 31.7 °F 32.0 °F 87% 29.67 in 7.0 mi West 4.6 mph - N/A   Clear
8:55 AM 39.2 °F 34.2 °F 33.8 °F 81% 29.68 in 7.0 mi West 6.9 mph - N/A   Clear
9:15 AM 42.8 °F 39.3 °F 33.8 °F 70% 29.68 in 7.0 mi West 5.8 mph - N/A   Unknown
9:35 AM 42.8 °F 38.6 °F 33.8 °F 70% 29.68 in 7.0 mi WNW 6.9 mph - N/A   Unknown
9:55 AM 44.6 °F 40.2 °F 33.8 °F 66% 29.69 in 10.0 mi NW 8.1 mph - N/A Rain Light Rain
10:15 AM 44.6 °F 38.4 °F 35.6 °F 71% 29.69 in 10.0 mi NW 12.7 mph - N/A Rain Light Rain
10:35 AM 46.4 °F 42.9 °F 37.4 °F 71% 29.70 in 7.0 mi NNW 6.9 mph - N/A Rain Light Rain
10:55 AM 46.4 °F 41.9 °F 39.2 °F 76% 29.70 in 10.0 mi NNW 9.2 mph - N/A   Scattered Clouds
11:15 AM 46.4 °F 42.4 °F 39.2 °F 76% 29.71 in 10.0 mi North 8.1 mph - N/A   Clear
11:35 AM 50.0 °F - 41.0 °F 71% 29.72 in 7.0 mi NW 10.4 mph - N/A   Clear
11:55 AM 50.0 °F - 41.0 °F 71% 29.72 in 10.0 mi NNW 10.4 mph - N/A   Scattered Clouds
12:15 PM 50.0 °F - 41.0 °F 71% 29.73 in 10.0 mi NNW 10.4 mph - N/A   Mostly Cloudy
12:35 PM 50.0 °F - 39.2 °F 66% 29.73 in 10.0 mi NNW 8.1 mph - N/A   Overcast
12:55 PM 48.2 °F - 35.6 °F 62% 29.74 in 10.0 mi NNW 10.4 mph - N/A   Overcast
1:15 PM 46.4 °F 42.9 °F 35.6 °F 66% 29.74 in 10.0 mi NNW 6.9 mph - N/A   Overcast
1:35 PM 46.4 °F 44.3 °F 37.4 °F 71% 29.74 in 10.0 mi NW 4.6 mph - N/A   Overcast
1:55 PM 50.0 °F - 37.4 °F 62% 29.74 in 10.0 mi WNW 5.8 mph - N/A   Overcast
2:15 PM 50.0 °F - 39.2 °F 66% 29.74 in 10.0 mi West 6.9 mph - N/A   Overcast
2:35 PM 50.0 °F - 41.0 °F 71% 29.74 in 10.0 mi West 8.1 mph - N/A   Overcast
2:55 PM 50.0 °F - 41.0 °F 71% 29.74 in 10.0 mi NW 6.9 mph - N/A   Overcast
3:15 PM 51.8 °F - 41.0 °F 67% 29.74 in 10.0 mi NW 11.5 mph - N/A   Overcast
3:35 PM 51.8 °F - 41.0 °F 67% 29.74 in 10.0 mi NW 9.2 mph - N/A   Overcast
3:55 PM 51.8 °F - 41.0 °F 67% 29.74 in 10.0 mi WNW 11.5 mph - N/A   Overcast
4:15 PM 53.6 °F - 41.0 °F 62% 29.74 in 10.0 mi WNW 8.1 mph - N/A   Overcast
4:35 PM 53.6 °F - 39.2 °F 58% 29.74 in 10.0 mi NNW 8.1 mph - N/A   Overcast
4:55 PM 53.6 °F - 37.4 °F 54% 29.74 in 10.0 mi NW 11.5 mph - N/A   Mostly Cloudy
5:15 PM 53.6 °F - 37.4 °F 54% 29.74 in 10.0 mi NW 12.7 mph - N/A   Mostly Cloudy
5:35 PM 53.6 °F - 35.6 °F 51% 29.75 in 10.0 mi WNW 17.3 mph 24.2 mph N/A   Overcast
5:55 PM 51.8 °F - 35.6 °F 54% 29.76 in 10.0 mi NNW 13.8 mph 20.7 mph N/A   Mostly Cloudy
6:15 PM 51.8 °F - 35.6 °F 54% 29.77 in 10.0 mi NW 16.1 mph 21.9 mph N/A   Scattered Clouds
6:35 PM 51.8 °F - 35.6 °F 54% 29.78 in 10.0 mi NNW 11.5 mph 18.4 mph N/A   Scattered Clouds
6:55 PM 51.8 °F - 35.6 °F 54% 29.79 in 10.0 mi NW 11.5 mph 18.4 mph N/A   Scattered Clouds
7:15 PM 50.0 °F - 35.6 °F 58% 29.80 in 10.0 mi NNW 13.8 mph 20.7 mph N/A   Clear
7:35 PM 50.0 °F - 35.6 °F 58% 29.80 in 10.0 mi NW 9.2 mph - N/A   Clear
7:55 PM 50.0 °F - 33.8 °F 54% 29.80 in 10.0 mi NNW 6.9 mph - N/A   Clear
8:15 PM 46.4 °F 43.5 °F 33.8 °F 62% 29.81 in 10.0 mi NNW 5.8 mph - N/A   Clear
8:35 PM 46.4 °F 43.5 °F 33.8 °F 62% 29.82 in 10.0 mi NW 5.8 mph - N/A   Clear
8:55 PM 46.4 °F 42.9 °F 33.8 °F 62% 29.83 in 10.0 mi NW 6.9 mph - N/A   Clear
9:15 PM 44.6 °F 40.2 °F 33.8 °F 66% 29.84 in 10.0 mi NW 8.1 mph - N/A   Clear
9:35 PM 44.6 °F 41.4 °F 33.8 °F 66% 29.85 in 10.0 mi NW 5.8 mph - N/A   Clear
9:55 PM 44.6 °F 40.7 °F 33.8 °F 66% 29.86 in 10.0 mi NW 6.9 mph - N/A   Clear
10:15 PM 41.0 °F 37.1 °F 33.8 °F 76% 29.86 in 10.0 mi WNW 5.8 mph - N/A   Clear
10:35 PM 41.0 °F 36.4 °F 33.8 °F 76% 29.86 in 10.0 mi WNW 6.9 mph - N/A   Clear
10:55 PM 41.0 °F 35.8 °F 33.8 °F 76% 29.86 in 10.0 mi NW 8.1 mph - N/A   Clear
11:15 PM 41.0 °F 35.2 °F 33.8 °F 76% 29.86 in 10.0 mi NW 9.2 mph - N/A   Clear
11:35 PM 41.0 °F 36.4 °F 32.0 °F 70% 29.87 in 10.0 mi NW 6.9 mph - N/A   Clear
11:55 PM 41.0 °F 36.4 °F 32.0 °F 70% 29.87 in 10.0 mi NW 6.9 mph - N/A   Clear